McAlester, OK

12:10 AM CDT on October 16, 2019 (GMT -0500)
McAlester Regional

Weather History for KMLC - September, 2019

Change the Weather History Date:

Friday, September 20, 2019

  Actual Average Record
Temperature  
Mean Temperature 72 °F -  
Max Temperature 75 °F 83 °F 101 °F (1954)
Min Temperature 70 °F 61 °F 45 °F (1971)
Cooling Degree Days 8    
Growing Degree Days 22 (Base 50)    
Moisture  
Dew Point 70 °F    
Average Humidity 91    
Maximum Humidity 96    
Minimum Humidity 76    
Precipitation  
Precipitation 1.28 in - - ()
Sea Level Pressure  
Sea Level Pressure 29.98 in    
Wind  
Wind Speed 6 mph (SE)    
Max Wind Speed 12 mph    
Max Gust Speed 17 mph    
Visibility 6 miles    
Events Fog , Rain , Thunderstorm    
Averages and records for this station are not official NWS values.
T = Trace of Precipitation, MM = Missing Value Source: NWS Daily Summary

Daily Weather History Graph

Daily Weather History Graph

Search for Another Location

Airport or City:

Astronomy

Sep. 20, 2019 Rise Set
Actual Time 7:09 AM CDT 7:23 PM CDT
Civil Twilight 6:44 AM CDT 7:48 PM CDT
Nautical Twilight 6:14 AM CDT 8:17 PM CDT
Astronomical Twilight 5:44 AM CDT 8:47 PM CDT
Moon 11:27 PM CDT (9/20) 1:01 PM CDT (9/20)
Length of Visible Light 13h 03m
Length of Day
12h 13m
Waning Gibbous, 65% of the Moon is Illuminated
Sep 20
Waning Gibbous
Sep 21
Last Quarter
Sep 28
New
Oct 5
First Quarter
Oct 13
Full

Hourly Weather History & Observations

Time (CDT) Temp. Dew Point Humidity Pressure Visibility Wind Dir Wind Speed Gust Speed Precip Events Conditions
12:53 AM 75.0 °F 66.9 °F 76% 29.94 in 10.0 mi ESE 8.1 mph - N/A   Overcast
1:53 AM 73.9 °F 68.0 °F 82% 29.93 in 10.0 mi SE 5.8 mph - N/A   Overcast
2:53 AM 73.0 °F 68.0 °F 84% 29.92 in 10.0 mi SE 5.8 mph - N/A   Overcast
3:01 AM 73.0 °F 68.0 °F 84% 29.96 in 10.0 mi Variable 4.6 mph - N/A   Overcast
3:08 AM 72.0 °F 68.0 °F 87% 29.95 in 6.0 mi SSE 9.2 mph - 0.00 in Rain Light Rain
3:31 AM 72.0 °F 69.1 °F 91% 29.95 in 5.0 mi Variable 5.8 mph - 0.00 in Rain Light Rain
3:41 AM 71.1 °F 69.1 °F 93% 29.95 in 5.0 mi Variable 5.8 mph - 0.00 in Rain Light Rain
3:53 AM 71.1 °F 69.1 °F 93% 29.91 in 4.0 mi Variable 5.8 mph - 0.00 in Rain Light Rain
4:15 AM 71.1 °F 69.1 °F 93% 29.94 in 10.0 mi SE 4.6 mph - 0.00 in   Overcast
4:22 AM 71.1 °F 69.1 °F 93% 29.94 in 10.0 mi ESE 5.8 mph - 0.00 in   Overcast
4:45 AM 71.1 °F 69.1 °F 93% 29.94 in 10.0 mi ESE 4.6 mph - 0.00 in   Overcast
4:53 AM 71.1 °F 69.1 °F 93% 29.91 in 10.0 mi Variable 3.5 mph - 0.00 in   Overcast
5:06 AM 71.1 °F 69.1 °F 93% 29.95 in 3.0 mi Variable 6.9 mph - 0.00 in Rain Light Rain
5:09 AM 71.1 °F 69.1 °F 93% 29.95 in 2.5 mi ESE 4.6 mph - 0.00 in Rain Light Rain
5:22 AM 71.1 °F 69.1 °F 93% 29.95 in 3.0 mi SE 5.8 mph - 0.00 in Rain Light Rain
5:37 AM 71.1 °F 69.1 °F 93% 29.95 in 9.0 mi Variable 4.6 mph - 0.01 in Rain Light Rain
5:53 AM 71.1 °F 69.1 °F 93% 29.93 in 10.0 mi SE 5.8 mph - 0.01 in Rain Light Rain
6:11 AM 71.1 °F 69.1 °F 93% 29.96 in 10.0 mi SE 5.8 mph - 0.00 in   Overcast
6:53 AM 71.1 °F 69.1 °F 93% 29.94 in 10.0 mi SE 5.8 mph - 0.00 in   Overcast
7:53 AM 71.1 °F 69.1 °F 93% 29.96 in 10.0 mi SSE 5.8 mph - 0.00 in   Overcast
8:24 AM 72.0 °F 69.1 °F 91% 29.99 in 10.0 mi SSE 6.9 mph - N/A   Overcast
8:53 AM 72.0 °F 68.0 °F 87% 29.97 in 10.0 mi SE 8.1 mph - N/A   Overcast
9:01 AM 72.0 °F 68.0 °F 87% 30.00 in 10.0 mi SE 8.1 mph - N/A   Overcast
9:22 AM 72.0 °F 68.0 °F 87% 30.00 in 10.0 mi SE 9.2 mph - N/A   Overcast
9:53 AM 72.0 °F 68.0 °F 87% 29.98 in 10.0 mi ESE 5.8 mph - N/A   Overcast
10:00 AM 72.0 °F 68.0 °F 87% 30.01 in 10.0 mi ESE 9.2 mph - N/A   Overcast
10:15 AM 71.1 °F 68.0 °F 90% 30.02 in 1.8 mi ESE 6.9 mph - 0.06 in Rain Heavy Rain
10:18 AM 71.1 °F 68.0 °F 90% 30.02 in 1.2 mi SE 5.8 mph - 0.11 in Rain Heavy Rain
10:30 AM 70.0 °F 68.0 °F 93% 30.02 in 1.5 mi ESE 8.1 mph - 0.21 in Rain Rain
10:35 AM 70.0 °F 68.0 °F 93% 30.02 in 3.0 mi Variable 6.9 mph - 0.22 in Rain Rain
10:53 AM 71.1 °F 69.1 °F 93% 29.99 in 10.0 mi ESE 9.2 mph - 0.23 in Rain Light Rain
11:10 AM 72.0 °F 70.0 °F 93% 30.02 in 10.0 mi East 6.9 mph - 0.00 in   Overcast
11:53 AM 73.0 °F 70.0 °F 90% 29.99 in 10.0 mi Variable 6.9 mph - 0.00 in   Overcast
12:53 PM 73.0 °F 71.1 °F 93% 29.99 in 3.0 mi SE 8.1 mph - 0.05 in Rain Light Rain
1:53 PM 73.9 °F 71.1 °F 91% 29.97 in 2.0 mi SE 8.1 mph - 0.11 in Rain Light Rain
1:56 PM 73.0 °F 71.1 °F 93% 29.99 in 1.2 mi SE 8.1 mph - 0.03 in Rain Heavy Rain
2:12 PM 73.0 °F 71.1 °F 93% 30.00 in 0.8 mi ESE 4.6 mph - 0.28 in Rain Heavy Rain
2:17 PM 73.0 °F 71.1 °F 93% 30.00 in 1.5 mi Variable 4.6 mph - 0.29 in Rain Rain
2:19 PM 73.0 °F 71.1 °F 93% 30.00 in 3.0 mi SSE 3.5 mph - 0.29 in Rain Rain
2:30 PM 73.9 °F 72.0 °F 93% 30.00 in 2.0 mi East 3.5 mph - 0.35 in Rain Rain
2:32 PM 73.0 °F 72.0 °F 96% 30.01 in 1.2 mi SE 3.5 mph - 0.42 in Rain Heavy Rain
2:34 PM 73.0 °F 71.1 °F 93% 30.01 in 0.8 mi SE 3.5 mph - 0.49 in Rain , Thunderstorm Heavy Rain
2:40 PM 73.0 °F 71.1 °F 93% 30.00 in 0.5 mi Calm Calm - 0.56 in Fog , Rain , Thunderstorm Heavy Rain
2:43 PM 73.0 °F 72.0 °F 96% 30.00 in 1.0 mi Variable 3.5 mph - 0.56 in Rain , Thunderstorm Rain
2:46 PM 73.0 °F 71.1 °F 93% 30.00 in 2.5 mi ESE 4.6 mph - 0.58 in Rain , Thunderstorm Light Rain
2:53 PM 73.0 °F 71.1 °F 93% 29.97 in 2.5 mi SE 8.1 mph - 0.62 in Rain , Thunderstorm Heavy Rain
2:57 PM 73.0 °F 71.1 °F 93% 29.99 in 3.0 mi Variable 6.9 mph - 0.00 in Rain , Thunderstorm Rain
3:05 PM 73.0 °F 71.1 °F 93% 29.99 in 8.0 mi SE 6.9 mph - 0.01 in Rain Light Rain
3:10 PM 73.0 °F 71.1 °F 93% 29.99 in 1.8 mi SE 6.9 mph - 0.08 in Rain Heavy Rain
3:20 PM 73.0 °F 71.1 °F 93% 29.99 in 3.0 mi Variable 6.9 mph - 0.10 in Rain Rain
3:53 PM 73.0 °F 72.0 °F 96% 29.97 in 7.0 mi Variable 6.9 mph - 0.17 in Rain Rain
4:53 PM 73.9 °F 71.1 °F 91% 29.94 in 9.0 mi SE 11.5 mph 17.3 mph 0.06 in Rain Light Rain
5:53 PM 73.9 °F 71.1 °F 91% 29.97 in 10.0 mi South 8.1 mph - 0.02 in   Partly Cloudy
6:53 PM 73.9 °F 71.1 °F 91% 29.96 in 10.0 mi South 8.1 mph - N/A   Scattered Clouds
7:53 PM 73.9 °F 72.0 °F 93% 29.96 in 10.0 mi Variable 6.9 mph - N/A   Partly Cloudy
8:17 PM 73.9 °F 71.1 °F 91% 29.99 in 10.0 mi SSE 8.1 mph - N/A   Partly Cloudy
8:53 PM 73.9 °F 71.1 °F 91% 29.98 in 10.0 mi Variable 5.8 mph - N/A   Clear
9:53 PM 73.9 °F 72.0 °F 93% 30.00 in 10.0 mi South 4.6 mph - N/A   Clear
10:53 PM 75.0 °F 72.0 °F 90% 30.01 in 10.0 mi North - - N/A   Partly Cloudy
11:53 PM 75.0 °F 71.1 °F 87% 30.01 in 10.0 mi SSE 9.2 mph - 0.01 in   Partly Cloudy